Wind_Speed
31 29 29 30 29 30 32 33 32 30 30 28 28 26 26 27 27 27 26 26 24 23 23 23 23 23 23 23 23 23 23 23 24 24 24 25 25 25 24 24 23 23 22 21
33 32 32 32 31 31 33 34 34 32 31 30 30 29 28 29 29 28 28 27 25 26 26 25 25 25 24 24 24 24 25 25 25 25 25 26 26 26 26 25 25 25 24 24
35 35 35 35 34 34 34 35 35 34 33 32 31 31 30 30 31 30 29 28 28 28 29 28 27 26 26 25 26 26 26 27 27 26 26 26 26 27 27 27 27 27 27 27
36 36 37 34 34 36 37 38 38 36 35 34 33 32 32 32 32 32 32 33 32 31 30 30 29 28 27 28 28 28 28 28 28 28 28 28 28 29 29 29 29 29 29 29
36 37 36 34 34 35 37 38 38 38 36 34 34 34 33 33 32 32 33 33 33 31 31 30 30 30 30 30 29 29 29 30 30 30 30 30 30 30 30 30 31 31 31 31
36 36 36 34 34 35 36 38 38 38 38 37 35 34 33 32 32 31 32 32 33 33 31 32 32 32 31 30 30 30 31 31 31 31 31 31 31 31 31 31 31 31 32 32
36 36 35 34 34 34 37 38 37 38 38 39 38 36 33 33 32 31 31 32 32 33 32 32 32 32 32 32 31 31 32 32 32 32 32 32 32 32 33 33 33 33 33 33
36 37 36 34 35 36 37 38 38 37 37 36 36 36 35 33 33 32 32 33 33 33 33 32 32 32 32 32 31 32 32 33 33 33 33 33 33 33 34 34 33 33 34 34
36 36 36 35 36 36 37 37 37 37 35 34 34 35 36 35 34 34 35 35 34 34 33 32 32 32 32 31 32 32 33 33 33 33 33 33 33 34 34 33 33 33 34 34
35 35 35 35 35 36 36 37 37 37 36 35 35 35 35 36 37 37 36 36 36 36 35 34 33 33 32 32 32 32 33 33 33 32 33 33 32 32 32 32 32 32 32 32
35 34 34 34 34 35 35 35 36 35 34 35 35 34 37 37 36 35 35 35 36 36 35 34 34 33 32 32 32 32 32 32 32 32 32 31 30 30 30 30 31 31 32 33
34 33 33 33 34 34 34 34 34 34 33 33 34 34 35 35 35 35 35 35 34 34 34 33 32 32 31 32 31 31 31 31 31 31 31 31 30 30 30 31 31 31 31 31
33 34 34 33 33 33 33 32 33 33 33 34 35 35 33 32 33 33 33 32 32 32 32 31 31 31 31 31 31 31 31 31 30 30 30 30 30 30 30 30 30 29 30 30
33 33 33 32 32 32 33 33 33 33 33 32 33 34 33 31 31 31 31 31 32 32 31 29 30 30 30 30 30 30 30 30 30 29 29 29 29 29 28 28 28 29 29 30
30 31 31 30 31 31 33 33 33 32 33 32 32 32 32 31 31 30 30 29 30 29 28 27 28 29 29 29 29 29 29 29 29 28 28 28 28 28 29 29 28 28 28 29
27 27 29 29 29 30 31 31 31 31 31 31 29 29 29 30 30 30 30 29 28 28 28 28 28 28 28 28 28 29 28 28 28 28 28 29 29 28 29 29 29 28 28 28
23 24 25 27 27 27 28 28 28 28 28 28 28 28 28 29 29 28 28 28 27 26 26 25 25 26 26 26 27 27 27 27 28 29 29 29 28 28 28 28 28 28 28 27
22 22 22 24 24 25 25 26 26 26 27 27 27 26 27 27 27 26 26 25 24 25 25 25 25 24 25 25 25 26 26 26 27 27 27 27 27 27 27 27 27 27 27 27
18 18 19 20 21 21 21 22 23 23 23 24 25 25 25 25 25 24 24 23 23 24 24 24 24 24 24 24 24 25 26 26 26 26 26 25 25 24 25 25 25 25 25 25
16 16 18 19 19 19 19 19 19 20 21 21 22 22 23 23 23 23 22 22 22 23 23 23 23 24 24 24 24 24 25 25 25 25 24 24 24 24 24 24 24 24 24 24
14 15 15 15 17 17 17 17 17 18 18 18 19 19 20 20 21 21 21 21 22 22 22 22 22 22 23 23 22 22 22 23 23 24 24 24 24 23 23 23 22 22 22 23
13 13 14 14 16 16 16 16 16 16 16 16 17 17 18 18 18 19 19 20 20 20 20 20 21 21 22 22 21 21 21 22 22 22 22 23 22 22 21 21 21 21 22 22
10 11 12 14 14 14 14 14 14 14 15 15 15 15 16 16 16 16 16 17 19 19 20 20 20 20 20 20 20 21 21 21 21 20 20 20 21 21 21 21 21 22 22 23
8 7 8 10 11 11 12 12 12 12 13 14 13 13 13 14 14 14 15 16 17 18 18 18 18 18 18 19 19 19 19 19 19 19 19 20 21 21 22 22 23 23 23 24
6 6 6 6 7 9 11 11 11 11 11 10 10 10 11 11 12 13 14 15 16 16 16 16 16 16 17 18 18 17 17 18 18 18 19 21 22 22 23 24 24 25 25 25
6 6 6 7 7 7 8 9 9 8 8 8 8 8 9 10 10 11 13 13 14 14 14 15 15 16 16 16 16 17 17 18 19 19 20 21 22 22 23 24 24 24 25 25
5 5 5 5 5 6 6 6 7 7 6 7 7 8 8 8 8 9 10 11 13 13 14 14 15 15 16 16 16 17 18 19 19 19 21 21 22 22 23 23 23 23 23 23
Wind_Direction
250 246 244 245 246 244 243 245 246 247 247 249 251 254 252 253 258 262 265 268 267 270 272 273 271 269 272 274 276 279 281 283 283 283 283 282 283 284 284 286 286 286 287 287
248 247 246 245 245 245 244 244 246 248 247 247 249 253 255 254 256 259 266 269 268 268 270 271 270 268 270 271 273 277 280 282 282 282 283 283 282 282 283 285 285 285 286 285
248 249 248 246 244 244 243 243 246 247 247 248 249 250 252 252 254 257 262 264 266 269 269 271 270 268 269 271 274 277 279 281 281 282 283 283 281 281 282 282 283 284 284 284
250 249 249 249 245 244 244 245 246 247 248 247 248 249 251 253 255 257 261 263 265 266 266 268 268 267 268 271 274 276 278 280 280 279 279 280 280 279 280 280 281 281 281 280
252 251 251 248 245 244 244 246 246 247 247 246 248 250 250 252 255 257 260 263 264 265 266 267 268 268 270 272 274 276 277 278 279 278 277 278 278 278 278 278 279 278 279 279
253 251 250 248 246 245 247 247 246 247 246 246 248 249 251 254 256 257 259 262 264 264 265 267 268 269 270 271 273 275 277 279 279 278 277 277 278 278 277 278 278 278 278 278
252 251 251 249 249 249 250 249 248 248 249 249 248 249 251 252 254 257 260 263 263 265 267 270 270 269 271 271 273 274 276 278 279 278 277 277 278 278 277 277 277 277 277 277
251 251 250 251 251 251 252 250 250 249 249 248 248 246 247 250 253 256 259 262 264 267 269 270 270 270 271 273 273 273 275 277 277 276 275 276 277 278 278 277 276 277 276 276
251 252 252 252 252 252 251 252 252 253 251 247 246 245 247 251 254 258 260 263 266 269 270 269 269 270 272 273 273 274 275 276 276 275 274 275 277 276 277 277 278 277 277 276
252 253 253 253 253 254 255 253 254 254 253 251 247 246 250 253 255 257 259 262 266 268 269 269 269 270 272 272 272 273 274 275 276 275 275 276 276 277 278 279 278 278 280 278
251 253 255 256 255 255 255 254 252 251 252 251 249 250 251 253 254 256 259 262 265 267 268 269 270 269 269 270 271 272 274 274 275 276 277 277 278 277 279 280 279 280 281 281
251 253 256 255 254 255 254 253 252 250 250 252 249 251 251 251 253 256 258 260 262 263 265 267 268 267 268 270 271 272 274 276 277 278 278 278 277 277 279 281 281 282 283 283
251 254 256 255 254 254 254 252 251 251 251 252 252 252 252 251 251 253 257 258 260 262 262 264 266 267 268 269 271 272 273 275 278 279 279 278 278 279 279 280 281 283 284 285
254 254 255 256 255 254 252 251 250 251 252 254 251 250 252 251 252 255 257 259 260 261 261 263 266 267 268 269 270 272 274 276 279 279 279 278 278 279 279 280 282 283 284 285
254 254 254 256 257 257 255 253 252 253 254 256 255 253 252 253 254 255 256 258 261 262 263 266 267 268 268 270 272 273 274 276 277 278 278 278 279 278 278 280 281 283 285 286
256 256 256 255 257 255 252 250 252 254 252 250 252 252 251 252 254 255 256 258 259 260 263 266 267 268 269 270 271 272 274 276 277 278 279 280 281 281 280 280 281 282 284 286
254 255 255 254 253 253 252 253 252 250 249 251 251 250 249 249 250 252 253 255 258 259 262 265 266 266 268 269 271 271 274 276 276 277 278 280 281 282 281 281 281 282 283 284
253 255 255 253 253 252 251 251 250 247 248 249 249 251 251 250 248 250 253 255 256 259 262 264 267 266 268 271 271 271 273 276 278 277 278 279 281 282 283 282 282 282 283 283
257 254 252 250 252 253 252 250 248 246 245 247 249 249 250 249 249 250 254 257 258 260 261 264 265 266 268 272 273 273 274 275 276 277 278 279 280 282 283 283 283 283 284 284
255 255 253 249 248 251 253 251 246 243 244 247 248 248 248 248 249 251 252 255 258 259 260 262 263 265 268 270 272 273 275 275 276 277 277 278 279 280 282 283 283 284 285 285
254 256 252 249 249 250 251 251 249 246 247 250 248 246 247 249 251 252 252 253 255 258 261 262 264 266 268 269 270 271 275 277 277 277 279 280 279 280 282 283 283 283 284 285
256 253 254 253 249 247 248 249 248 248 250 252 250 248 249 252 254 254 253 252 253 256 259 260 262 264 265 266 269 272 276 279 279 280 280 280 279 279 282 284 285 285 286 287
256 254 250 247 244 244 245 247 247 249 253 255 255 252 252 254 254 254 254 254 255 256 259 259 260 262 262 265 269 272 276 278 280 281 282 282 282 283 285 286 286 286 287 288
250 252 252 244 240 243 245 246 246 250 253 255 257 257 257 257 258 258 258 258 258 258 260 261 260 261 262 266 269 271 274 278 281 283 284 285 286 287 288 288 287 288 289 291
244 243 250 249 247 247 247 247 248 252 253 249 254 257 260 261 261 261 261 259 261 262 261 263 263 263 264 268 271 274 277 280 282 284 287 288 289 290 291 291 290 290 290 292
253 251 250 250 253 245 241 239 241 247 246 252 259 260 258 259 262 264 263 263 266 267 269 269 268 267 269 273 277 279 281 283 286 288 291 293 293 293 294 295 294 293 292 292
246 249 250 245 242 239 235 233 235 236 241 251 257 261 261 260 264 270 271 271 272 272 273 273 273 273 273 275 280 283 285 286 287 289 292 294 294 295 296 297 297 297 297 296
Height
5832 5835 5836 5838 5840 5842 5842 5844 5846 5848 5850 5853 5855 5857 5858 5859 5860 5861 5862 5863 5864 5865 5866 5867 5867 5867 5867 5868 5868 5867 5866 5865 5864 5863 5861 5860 5859 5858 5857 5855 5854 5852 5851 5850
5824 5826 5827 5829 5831 5833 5834 5836 5838 5841 5843 5845 5847 5849 5850 5852 5854 5854 5855 5855 5856 5858 5859 5859 5860 5860 5860 5861 5861 5860 5859 5858 5857 5855 5854 5853 5852 5851 5850 5849 5847 5846 5844 5843
5814 5816 5817 5820 5824 5824 5826 5828 5830 5832 5836 5837 5839 5841 5843 5844 5846 5847 5848 5848 5849 5851 5852 5852 5852 5853 5853 5853 5853 5852 5851 5850 5849 5848 5847 5846 5845 5844 5843 5841 5840 5839 5837 5836
5804 5806 5807 5814 5814 5815 5817 5819 5821 5823 5826 5829 5831 5833 5834 5836 5838 5839 5839 5840 5841 5842 5843 5844 5844 5844 5844 5844 5844 5844 5843 5842 5841 5840 5839 5838 5837 5836 5835 5833 5832 5831 5829 5828
5794 5795 5797 5802 5804 5806 5807 5810 5813 5815 5817 5819 5821 5823 5825 5827 5829 5830 5831 5832 5832 5833 5834 5835 5835 5835 5835 5835 5835 5835 5834 5833 5832 5831 5831 5830 5828 5827 5826 5825 5823 5822 5820 5819
5783 5785 5787 5793 5795 5796 5798 5800 5804 5806 5808 5810 5812 5814 5817 5819 5820 5821 5823 5824 5825 5825 5825 5825 5826 5826 5826 5826 5826 5826 5825 5824 5823 5822 5821 5820 5819 5818 5817 5816 5814 5813 5811 5810
5774 5774 5777 5783 5785 5788 5790 5792 5794 5796 5798 5800 5802 5805 5808 5809 5811 5812 5814 5815 5816 5816 5816 5817 5817 5817 5816 5817 5817 5816 5815 5814 5813 5812 5811 5810 5809 5808 5807 5806 5805 5803 5802 5801
5764 5765 5771 5773 5775 5778 5778 5781 5783 5786 5788 5790 5793 5795 5797 5799 5802 5803 5805 5806 5806 5807 5807 5807 5807 5807 5807 5807 5807 5806 5805 5804 5803 5802 5801 5800 5799 5798 5797 5795 5794 5793 5792 5791
5755 5758 5761 5763 5764 5766 5767 5770 5772 5775 5777 5779 5782 5785 5787 5790 5792 5793 5795 5796 5797 5797 5798 5797 5797 5797 5797 5797 5797 5796 5795 5795 5794 5792 5791 5790 5789 5788 5786 5785 5784 5783 5782 5780
5745 5747 5750 5753 5754 5756 5758 5760 5762 5764 5767 5769 5771 5775 5777 5779 5781 5783 5785 5786 5786 5787 5787 5788 5788 5787 5787 5787 5787 5786 5786 5785 5784 5783 5781 5780 5778 5777 5777 5776 5775 5773 5772 5771
5736 5738 5740 5742 5744 5746 5748 5750 5752 5753 5756 5758 5761 5764 5766 5768 5771 5773 5774 5775 5776 5776 5777 5777 5777 5777 5778 5778 5777 5777 5776 5775 5774 5773 5772 5771 5769 5768 5767 5767 5766 5765 5764 5762
5727 5730 5731 5733 5735 5737 5738 5740 5742 5744 5746 5748 5751 5753 5754 5757 5760 5762 5763 5764 5765 5766 5766 5767 5767 5768 5768 5768 5767 5767 5767 5766 5765 5764 5762 5761 5760 5759 5758 5758 5757 5755 5754 5752
5719 5720 5721 5723 5725 5727 5728 5731 5732 5734 5736 5738 5741 5742 5744 5746 5749 5751 5753 5754 5755 5756 5757 5758 5758 5758 5758 5758 5758 5758 5757 5757 5756 5754 5753 5752 5751 5750 5749 5748 5747 5746 5745 5743
5709 5710 5712 5714 5715 5716 5718 5720 5722 5724 5726 5728 5731 5733 5735 5738 5740 5742 5743 5744 5746 5746 5747 5748 5749 5749 5749 5749 5749 5749 5748 5747 5747 5745 5744 5743 5742 5741 5740 5739 5738 5737 5735 5734
5701 5701 5703 5705 5706 5707 5708 5710 5712 5714 5716 5719 5721 5724 5727 5729 5731 5733 5734 5735 5736 5737 5737 5738 5739 5740 5740 5740 5740 5740 5739 5738 5738 5736 5735 5734 5733 5733 5732 5731 5729 5728 5726 5724
5693 5693 5694 5696 5697 5698 5699 5701 5703 5706 5708 5710 5713 5716 5718 5720 5721 5723 5725 5726 5728 5729 5729 5730 5731 5731 5731 5732 5732 5731 5730 5729 5729 5728 5727 5726 5724 5723 5722 5721 5719 5718 5717 5715
5685 5685 5686 5688 5689 5691 5692 5694 5696 5698 5700 5703 5705 5707 5709 5711 5713 5714 5716 5717 5719 5720 5721 5721 5722 5722 5723 5723 5723 5723 5722 5721 5720 5719 5718 5716 5715 5714 5712 5711 5710 5709 5707 5706
5678 5679 5680 5681 5682 5684 5685 5686 5689 5691 5694 5696 5697 5699 5701 5703 5705 5707 5708 5709 5711 5713 5714 5714 5714 5715 5715 5715 5715 5714 5713 5712 5711 5710 5709 5708 5706 5705 5703 5702 5701 5699 5698 5697
5672 5673 5674 5675 5676 5677 5679 5680 5682 5685 5687 5688 5690 5692 5694 5696 5698 5700 5701 5702 5704 5705 5706 5707 5707 5707 5707 5707 5706 5705 5705 5704 5703 5702 5700 5699 5698 5696 5695 5693 5692 5691 5689 5688
5668 5668 5669 5670 5671 5672 5674 5675 5677 5679 5681 5683 5685 5687 5688 5690 5691 5693 5694 5695 5697 5698 5699 5699 5700 5700 5700 5699 5699 5698 5697 5696 5695 5694 5692 5691 5690 5688 5687 5686 5684 5683 5681 5680
5664 5665 5665 5666 5667 5668 5669 5671 5672 5674 5676 5677 5679 5681 5682 5684 5686 5686 5688 5689 5691 5691 5692 5692 5693 5693 5693 5692 5692 5691 5690 5689 5688 5686 5685 5683 5682 5680 5679 5678 5676 5675 5674 5672
5661 5662 5662 5663 5664 5665 5665 5667 5668 5670 5672 5673 5674 5676 5677 5678 5679 5680 5681 5683 5684 5685 5686 5686 5686 5686 5686 5686 5685 5684 5684 5683 5681 5679 5678 5677 5675 5673 5672 5670 5669 5668 5666 5665
5658 5658 5659 5659 5660 5661 5662 5663 5664 5666 5668 5669 5670 5671 5672 5673 5674 5675 5676 5677 5678 5679 5679 5679 5679 5679 5679 5679 5679 5678 5677 5676 5674 5673 5672 5670 5669 5667 5665 5664 5662 5661 5659 5657
5655 5655 5655 5656 5657 5658 5659 5660 5661 5663 5664 5665 5666 5667 5667 5668 5669 5669 5670 5671 5672 5673 5673 5673 5673 5673 5673 5673 5672 5672 5671 5669 5668 5667 5665 5664 5662 5660 5659 5657 5655 5653 5652 5650
5653 5653 5654 5654 5655 5656 5657 5657 5659 5660 5660 5661 5662 5663 5663 5664 5664 5665 5665 5666 5667 5667 5667 5667 5667 5667 5667 5667 5666 5665 5664 5663 5662 5660 5659 5657 5655 5653 5651 5649 5647 5645 5643 5641
5651 5652 5652 5652 5653 5653 5654 5655 5656 5657 5657 5658 5659 5659 5660 5660 5660 5661 5661 5661 5662 5662 5661 5661 5661 5661 5661 5661 5660 5659 5658 5657 5656 5654 5653 5651 5648 5646 5644 5641 5638 5636 5634 5633
5649 5650 5650 5651 5651 5652 5653 5653 5654 5655 5655 5656 5656 5657 5657 5657 5657 5657 5657 5657 5657 5657 5657 5656 5656 5656 5655 5655 5654 5654 5653 5651 5650 5648 5646 5644 5642 5639 5637 5634 5632 5629 5627 5625